UAL1536 KIAD-KRDU

Flight info

Callsign UAL1536
Flight time 0h 42m
Altitude 30000
Route JDUBB4 MELTN ALDAN4
Aircraft B738/M-SDE2E3FGHIRWXY/LB1

Departure

Time 2026-05-06 23:13
Airport Washington Dulles International Airport (KIAD)

Arrival

Time 2026-05-06 23:55
Airport Raleigh-Durham International Airport (KRDU)
Time Latitude Longitude Altitude Speed Heading
2026-05-06 22:41 38.94483 -77.44373 299 ft 0 kts 351°
2026-05-06 23:03 38.94463 -77.44368 301 ft 4 kts 343°
2026-05-06 23:03 38.94438 -77.44356 299 ft 4 kts 329°
2026-05-06 23:03 38.94417 -77.44335 299 ft 4 kts 307°
2026-05-06 23:03 38.94407 -77.44307 299 ft 2 kts 272°
2026-05-06 23:04 38.94406 -77.44304 299 ft 0 kts 271°
2026-05-06 23:06 38.94407 -77.44330 299 ft 6 kts 270°
2026-05-06 23:06 38.94407 -77.44401 299 ft 10 kts 270°
2026-05-06 23:06 38.94408 -77.44506 299 ft 13 kts 270°
2026-05-06 23:07 38.94408 -77.44627 299 ft 13 kts 270°
2026-05-06 23:07 38.94408 -77.44744 299 ft 13 kts 270°
2026-05-06 23:07 38.94408 -77.44856 299 ft 12 kts 271°
2026-05-06 23:07 38.94411 -77.44964 303 ft 12 kts 272°
2026-05-06 23:08 38.94412 -77.45071 299 ft 12 kts 269°
2026-05-06 23:08 38.94413 -77.45184 299 ft 14 kts 271°
2026-05-06 23:08 38.94415 -77.45318 299 ft 16 kts 270°
2026-05-06 23:08 38.94415 -77.45467 299 ft 16 kts 270°
2026-05-06 23:09 38.94416 -77.45521 299 ft 0 kts 272°
2026-05-06 23:09 38.94417 -77.45552 299 ft 9 kts 272°
2026-05-06 23:09 38.94361 -77.45613 299 ft 15 kts 186°
2026-05-06 23:10 38.94238 -77.45615 303 ft 20 kts 180°
2026-05-06 23:10 38.94099 -77.45617 299 ft 20 kts 180°
2026-05-06 23:10 38.93963 -77.45619 301 ft 19 kts 181°
2026-05-06 23:10 38.93838 -77.45620 302 ft 17 kts 180°
2026-05-06 23:11 38.93724 -77.45615 300 ft 15 kts 163°
2026-05-06 23:11 38.93651 -77.45537 301 ft 12 kts 130°
2026-05-06 23:11 38.93590 -77.45499 303 ft 9 kts 185°
2026-05-06 23:11 38.93531 -77.45523 300 ft 9 kts 201°
2026-05-06 23:12 38.93466 -77.45554 301 ft 11 kts 200°
2026-05-06 23:12 38.93388 -77.45608 301 ft 15 kts 238°
2026-05-06 23:12 38.93412 -77.45770 302 ft 37 kts 290°
2026-05-06 23:12 38.93619 -77.46480 302 ft 129 kts 290°
2026-05-06 23:13 38.94030 -77.47881 397 ft 199 kts 291°
2026-05-06 23:13 38.94313 -77.49591 1548 ft 190 kts 261°
2026-05-06 23:13 38.93748 -77.51144 2400 ft 198 kts 230°
2026-05-06 23:13 38.92576 -77.52063 2898 ft 204 kts 199°
2026-05-06 23:14 38.91077 -77.52168 3013 ft 230 kts 181°
2026-05-06 23:14 38.89456 -77.52027 3003 ft 234 kts 180°
2026-05-06 23:14 38.87837 -77.51941 3061 ft 231 kts 187°
2026-05-06 23:14 38.86243 -77.52102 3418 ft 237 kts 190°
2026-05-06 23:15 38.84601 -77.52303 3983 ft 238 kts 191°
2026-05-06 23:15 38.82936 -77.52506 4511 ft 241 kts 191°
2026-05-06 23:15 38.81205 -77.52704 4789 ft 259 kts 190°
2026-05-06 23:15 38.79382 -77.52900 5404 ft 265 kts 190°
2026-05-06 23:16 38.77530 -77.53088 6188 ft 266 kts 191°
2026-05-06 23:16 38.75677 -77.53272 6874 ft 270 kts 191°
2026-05-06 23:16 38.73785 -77.53452 7626 ft 272 kts 191°
2026-05-06 23:16 38.71903 -77.53636 8451 ft 272 kts 192°
2026-05-06 23:17 38.69996 -77.53827 9186 ft 277 kts 191°
2026-05-06 23:17 38.68092 -77.54004 9973 ft 279 kts 191°
2026-05-06 23:17 38.66132 -77.54188 10524 ft 292 kts 191°
2026-05-06 23:17 38.64023 -77.54394 10695 ft 315 kts 191°
2026-05-06 23:18 38.61759 -77.54612 10855 ft 337 kts 190°
2026-05-06 23:18 38.59360 -77.54839 11161 ft 353 kts 190°
2026-05-06 23:18 38.56889 -77.55064 11735 ft 359 kts 190°
2026-05-06 23:18 38.54379 -77.55289 12386 ft 363 kts 190°
2026-05-06 23:19 38.51849 -77.55518 13074 ft 367 kts 190°
2026-05-06 23:19 38.49288 -77.55753 13744 ft 371 kts 191°
2026-05-06 23:19 38.46734 -77.55991 14353 ft 375 kts 191°
2026-05-06 23:19 38.44115 -77.56235 14926 ft 380 kts 191°
2026-05-06 23:20 38.41464 -77.56491 15559 ft 382 kts 194°
2026-05-06 23:20 38.38948 -77.57340 16177 ft 370 kts 213°
2026-05-06 23:20 38.36780 -77.59029 16902 ft 363 kts 222°
2026-05-06 23:20 38.34712 -77.60874 17619 ft 364 kts 222°
2026-05-06 23:21 38.32621 -77.62719 18256 ft 367 kts 222°
2026-05-06 23:21 38.30502 -77.64550 18856 ft 369 kts 222°
2026-05-06 23:21 38.28367 -77.66382 19393 ft 372 kts 222°
2026-05-06 23:21 38.26244 -77.68207 19941 ft 374 kts 222°
2026-05-06 23:22 38.24083 -77.70070 20481 ft 376 kts 222°
2026-05-06 23:22 38.21904 -77.71949 20925 ft 381 kts 222°
2026-05-06 23:22 38.19697 -77.73849 21434 ft 385 kts 222°
2026-05-06 23:22 38.17477 -77.75756 22010 ft 385 kts 222°
2026-05-06 23:23 38.15252 -77.77665 22537 ft 387 kts 223°
2026-05-06 23:23 38.13010 -77.79588 23009 ft 390 kts 223°
2026-05-06 23:23 38.10755 -77.81521 23470 ft 392 kts 223°
2026-05-06 23:23 38.08485 -77.83466 23852 ft 394 kts 223°
2026-05-06 23:24 38.06237 -77.85390 24240 ft 396 kts 223°
2026-05-06 23:24 38.03917 -77.87372 24652 ft 397 kts 223°
2026-05-06 23:24 38.01653 -77.89307 24977 ft 400 kts 222°
2026-05-06 23:24 37.99336 -77.91288 25294 ft 403 kts 222°
2026-05-06 23:25 37.97008 -77.93273 25703 ft 404 kts 222°
2026-05-06 23:25 37.94673 -77.95260 26132 ft 404 kts 222°
2026-05-06 23:25 37.92347 -77.97236 26681 ft 401 kts 222°
2026-05-06 23:25 37.90042 -77.99190 27333 ft 396 kts 222°
2026-05-06 23:26 37.87768 -78.01119 27921 ft 392 kts 222°
2026-05-06 23:26 37.85509 -78.03038 28461 ft 390 kts 222°
2026-05-06 23:26 37.83257 -78.04952 28971 ft 389 kts 222°
2026-05-06 23:26 37.81047 -78.06829 29493 ft 387 kts 222°
2026-05-06 23:27 37.78811 -78.08726 29901 ft 388 kts 222°
2026-05-06 23:27 37.74305 -78.12549 29869 ft 389 kts 222°
2026-05-06 23:28 37.69858 -78.16305 29889 ft 385 kts 222°
2026-05-06 23:28 37.65395 -78.20078 29889 ft 387 kts 222°
2026-05-06 23:29 37.60908 -78.23866 29894 ft 388 kts 222°
2026-05-06 23:29 37.56409 -78.27654 29884 ft 390 kts 221°
2026-05-06 23:30 37.51919 -78.31428 29898 ft 391 kts 221°
2026-05-06 23:30 37.47340 -78.35273 29886 ft 395 kts 221°
2026-05-06 23:30 37.45051 -78.37194 29525 ft 393 kts 221°
2026-05-06 23:31 37.42794 -78.39085 29059 ft 397 kts 221°
2026-05-06 23:31 37.40454 -78.41040 28592 ft 394 kts 221°
2026-05-06 23:31 37.38208 -78.42916 28107 ft 389 kts 221°
2026-05-06 23:31 37.35958 -78.44796 27639 ft 387 kts 221°
2026-05-06 23:32 37.33716 -78.46670 27170 ft 385 kts 221°
2026-05-06 23:32 37.31501 -78.48522 26706 ft 384 kts 221°
2026-05-06 23:32 37.29277 -78.50384 26253 ft 385 kts 221°
2026-05-06 23:32 37.27025 -78.52262 25779 ft 384 kts 221°
2026-05-06 23:33 37.24794 -78.54119 25327 ft 384 kts 221°
2026-05-06 23:33 37.22554 -78.55983 24861 ft 384 kts 222°
2026-05-06 23:33 37.20386 -78.57786 24395 ft 384 kts 222°
2026-05-06 23:33 37.18159 -78.59635 23947 ft 378 kts 222°
2026-05-06 23:34 37.15961 -78.61456 23459 ft 373 kts 221°
2026-05-06 23:34 37.13786 -78.63266 22957 ft 378 kts 221°
2026-05-06 23:34 37.11685 -78.65016 22498 ft 379 kts 221°
2026-05-06 23:34 37.09408 -78.66902 21993 ft 372 kts 221°
2026-05-06 23:35 37.07276 -78.68660 21543 ft 360 kts 221°
2026-05-06 23:35 37.05320 -78.70273 21131 ft 348 kts 221°
2026-05-06 23:35 37.03243 -78.71986 20683 ft 337 kts 221°
2026-05-06 23:35 37.01303 -78.73592 20310 ft 335 kts 222°
2026-05-06 23:36 36.99446 -78.75134 19915 ft 335 kts 222°
2026-05-06 23:36 36.97736 -78.76554 19563 ft 336 kts 221°
2026-05-06 23:36 36.95796 -78.78163 19135 ft 339 kts 221°
2026-05-06 23:36 36.94224 -78.79464 18777 ft 337 kts 221°
2026-05-06 23:37 36.92285 -78.81059 18377 ft 330 kts 221°
2026-05-06 23:37 36.90389 -78.82618 17938 ft 325 kts 222°
2026-05-06 23:37 36.88505 -78.84172 17535 ft 323 kts 221°
2026-05-06 23:37 36.86634 -78.85716 17135 ft 321 kts 221°
2026-05-06 23:38 36.84775 -78.87248 16744 ft 319 kts 221°
2026-05-06 23:38 36.82925 -78.88771 16358 ft 317 kts 221°
2026-05-06 23:38 36.81086 -78.90284 15972 ft 316 kts 220°
2026-05-06 23:38 36.79255 -78.91790 15582 ft 314 kts 220°
2026-05-06 23:39 36.77433 -78.93287 15196 ft 313 kts 220°
2026-05-06 23:39 36.75617 -78.94780 14806 ft 312 kts 220°
2026-05-06 23:39 36.73830 -78.96247 14436 ft 311 kts 219°
2026-05-06 23:39 36.72023 -78.97728 14030 ft 310 kts 219°
2026-05-06 23:40 36.70221 -78.99204 13656 ft 310 kts 219°
2026-05-06 23:40 36.68314 -79.00480 13224 ft 318 kts 204°
2026-05-06 23:40 36.66112 -79.00917 12884 ft 325 kts 186°
2026-05-06 23:40 36.63847 -79.00517 12536 ft 331 kts 173°
2026-05-06 23:41 36.61610 -78.99851 12166 ft 330 kts 172°
2026-05-06 23:41 36.59384 -78.99163 11786 ft 329 kts 172°
2026-05-06 23:41 36.57168 -78.98484 11416 ft 327 kts 172°
2026-05-06 23:41 36.54966 -78.97821 11081 ft 325 kts 173°
2026-05-06 23:42 36.52797 -78.97182 10708 ft 324 kts 173°
2026-05-06 23:42 36.50620 -78.96545 10510 ft 317 kts 173°
2026-05-06 23:42 36.48495 -78.95926 10348 ft 309 kts 173°
2026-05-06 23:42 36.46344 -78.95304 10203 ft 306 kts 173°
2026-05-06 23:43 36.44350 -78.94728 10076 ft 301 kts 173°
2026-05-06 23:43 36.42340 -78.94145 9997 ft 290 kts 174°
2026-05-06 23:43 36.40407 -78.93530 9622 ft 291 kts 165°
2026-05-06 23:43 36.38692 -78.92113 9344 ft 297 kts 141°
2026-05-06 23:44 36.37290 -78.90300 9061 ft 293 kts 139°
2026-05-06 23:44 36.35894 -78.88483 8764 ft 290 kts 139°
2026-05-06 23:44 36.34522 -78.86709 8555 ft 287 kts 139°
2026-05-06 23:44 36.33055 -78.84827 8417 ft 280 kts 140°
2026-05-06 23:45 36.31805 -78.83233 8309 ft 274 kts 140°
2026-05-06 23:45 36.30493 -78.81563 8200 ft 267 kts 140°
2026-05-06 23:45 36.29112 -78.79821 8071 ft 259 kts 140°
2026-05-06 23:45 36.27956 -78.78373 7940 ft 254 kts 140°
2026-05-06 23:46 36.26714 -78.76804 7682 ft 256 kts 140°
2026-05-06 23:46 36.25467 -78.75229 7424 ft 257 kts 140°
2026-05-06 23:46 36.24215 -78.73641 7163 ft 258 kts 140°
2026-05-06 23:46 36.22981 -78.72076 6886 ft 257 kts 140°
2026-05-06 23:47 36.21733 -78.70491 6612 ft 258 kts 140°
2026-05-06 23:47 36.20477 -78.68901 6332 ft 258 kts 140°
2026-05-06 23:47 36.19218 -78.67306 6031 ft 259 kts 141°
2026-05-06 23:47 36.17813 -78.65961 5673 ft 253 kts 160°
2026-05-06 23:48 36.16203 -78.65017 5353 ft 253 kts 161°
2026-05-06 23:48 36.14609 -78.64084 4902 ft 253 kts 160°
2026-05-06 23:48 36.13033 -78.63157 4444 ft 247 kts 160°
2026-05-06 23:48 36.11458 -78.62229 3957 ft 239 kts 160°
2026-05-06 23:49 36.10016 -78.61377 3513 ft 234 kts 162°
2026-05-06 23:49 36.08488 -78.60997 3130 ft 219 kts 188°
2026-05-06 23:49 36.07022 -78.61195 3032 ft 210 kts 194°
2026-05-06 23:49 36.05624 -78.61525 3006 ft 205 kts 196°
2026-05-06 23:50 36.04252 -78.61871 2998 ft 199 kts 197°
2026-05-06 23:50 36.01616 -78.62705 2977 ft 192 kts 216°
2026-05-06 23:50 36.00693 -78.63855 3003 ft 189 kts 230°
2026-05-06 23:51 35.99750 -78.65005 2991 ft 191 kts 226°
2026-05-06 23:51 35.98812 -78.66125 2894 ft 182 kts 227°
2026-05-06 23:51 35.97957 -78.67172 2702 ft 165 kts 227°
2026-05-06 23:51 35.97422 -78.67833 2591 ft 153 kts 227°
2026-05-06 23:52 35.96461 -78.69027 2342 ft 150 kts 228°
2026-05-06 23:52 35.95748 -78.69908 2144 ft 143 kts 228°
2026-05-06 23:52 35.95037 -78.70792 1955 ft 146 kts 229°
2026-05-06 23:52 35.94321 -78.71681 1755 ft 144 kts 225°
2026-05-06 23:53 35.93961 -78.72126 1666 ft 141 kts 226°
2026-05-06 23:53 35.92989 -78.73305 1416 ft 122 kts 224°
2026-05-06 23:53 35.92573 -78.73819 1223 ft 133 kts 227°
2026-05-06 23:53 35.91688 -78.74939 982 ft 138 kts 227°
2026-05-06 23:54 35.91024 -78.75800 830 ft 137 kts 223°
2026-05-06 23:54 35.90356 -78.76600 611 ft 130 kts 230°
2026-05-06 23:54 35.89741 -78.77360 532 ft 127 kts 224°
2026-05-06 23:54 35.89125 -78.78127 401 ft 122 kts 225°
2026-05-06 23:55 35.88597 -78.78775 392 ft 84 kts 225°
2026-05-06 23:55 35.88309 -78.79130 390 ft 44 kts 225°
2026-05-06 23:55 35.88181 -78.79287 392 ft 33 kts 224°
2026-05-06 23:55 35.88018 -78.79463 393 ft 11 kts 210°
2026-05-06 23:56 35.87965 -78.79477 392 ft 7 kts 171°
2026-05-06 23:56 35.87921 -78.79456 392 ft 7 kts 168°
2026-05-06 23:56 35.87886 -78.79467 391 ft 4 kts 211°
2026-05-06 23:56 35.87867 -78.79487 391 ft 3 kts 222°
2026-05-06 23:57 35.87846 -78.79510 391 ft 6 kts 224°
2026-05-06 23:57 35.87800 -78.79568 391 ft 14 kts 225°
2026-05-06 23:57 35.87734 -78.79643 391 ft 12 kts 214°
2026-05-06 23:57 35.87691 -78.79664 390 ft 1 kts 197°
2026-05-06 23:58 35.87684 -78.79666 390 ft 2 kts 197°
2026-05-06 23:58 35.87637 -78.79687 390 ft 11 kts 204°
2026-05-06 23:58 35.87584 -78.79736 390 ft 9 kts 222°
2026-05-06 23:58 35.87564 -78.79759 390 ft 4 kts 224°
2026-05-06 23:59 35.87534 -78.79783 390 ft 5 kts 192°
2026-05-06 23:59 35.87485 -78.79754 390 ft 7 kts 138°
2026-05-06 23:59 35.87474 -78.79732 391 ft 6 kts 105°
2026-05-06 23:59 35.87492 -78.79680 391 ft 4 kts 56°
2026-05-07 00:00 35.87500 -78.79666 391 ft 1 kts 56°
2026-05-07 00:00 35.87502 -78.79663 391 ft 0 kts 56°